Regional Weather Roundup
Issued by NWS

Home | Current Version | Previous Version | Graphics & Text | Print | Product List | Glossary On
Versions: 1 2 3 4 5 6 7 8 9 10 11 12 13 14 15 16 17 18 19 20 21 22 23 24 25 26 27 28 29 30 31 32 33 34 35 36 37 38 39 40 41 42 43 44 45 46 47 48 49 50
000
ASUS43 KLMK 210010
RWRKY
NATIONAL WEATHER SERVICE LOUISVILLE KY
700 PM EST THU NOV 20 2014

NOTE "FAIR" INDICATES FEW OR NO CLOUDS BELOW 12,000 FEET
WITH NO SIGNIFICANT WEATHER AND/OR OBSTRUCTIONS TO VISIBILITY.

KYZ001>023-026-027-061>063-070>075-210100-
WESTERN AND SOUTH CENTRAL KENTUCKY

CITY           SKY/WX    TMP DP  RH WIND       PRES   REMARKS
PADUCAH        CLEAR     31  22  69 SW3       30.23R
HENDERSON      CLEAR     28  18  64 CALM      30.25R
OWENSBORO      CLEAR     31  20  63 N5        30.25S WCI  26
HOPKINSVILLE   NOT AVBL
BOWLING GREEN  CLEAR     37  19  48 CALM      30.24R
GLASGOW        CLEAR     33  20  60 NW3       30.23R
$$

KYZ024-025-028>034-038-045-046-053-210100-
NORTH CENTRAL KENTUCKY

CITY           SKY/WX    TMP DP  RH WIND       PRES   REMARKS
LOUISVILLE/SDF CLEAR     29  17  61 W7        30.23R WCI  22
LOUISVILLE/LOU CLEAR     30  16  56 W6        30.24R WCI  24
FORT KNOX      CLEAR     28  17  64 W5        30.22R WCI  23
$$

KYZ035>037-039>044-047>052-055>060-089>105-210100-
NORTHEAST KENTUCKY

CITY           SKY/WX    TMP DP  RH WIND       PRES   REMARKS
LEXINGTON      CLEAR     27  17  66 NW6       30.20R WCI  20
COVINGTON      CLEAR     27  13  55 SW5       30.18R WCI  22
FRANKFORT      CLEAR     27  15  61 W3        30.20R
$$

KYZ054-064>069-076>088-106>120-210100-
SOUTHEAST KENTUCKY

CITY           SKY/WX    TMP DP  RH WIND       PRES   REMARKS
JACKSON        CLEAR     32  17  54 VRB6      30.15R WCI  26
LONDON         CLEAR     35  16  45 NW5       30.18R WCI  31
SOMERSET       CLEAR     34  18  51 W3        30.22R
MIDDLESBORO    CLEAR     33  26  74 CALM      30.17R
MONTICELLO     CLEAR     33  19  56 W5        30.23R WCI  28
$$



USA.gov is the U.S. government's official web portal to all federal, state and local government web resources and services.